Regional Weather Roundup
Issued by NWS Grand Forks, ND

Home | Current Version | Previous Version | Graphics & Text | Print | Product List | Glossary On
Versions: 1 2 3 4 5 6 7 8 9 10 11 12 13 14 15 16 17 18 19 20 21 22 23 24 25 26 27 28 29 30 31 32 33 34 35 36 37 38 39 40 41 42 43 44 45 46 47 48 49 50
000
ASUS43 KFGF 251110
RWRFGF
PRAIRIE TO PINES  WEATHER ROUNDUP
NATIONAL WEATHER SERVICE EASTERN NORTH DAKOTA/GRAND FORKS ND
500 AM CST SUN FEB 25 2018

 **SATELLITE DATA USED TO AUGMENT SKY COVER AT AUTOMATED STATIONS**
 *****  WEATHER ACROSS EASTERN NORTH DAKOTA  *****

CITY           SKY/WX    TMP DP  RH WIND       PRES   REMARKS
GRAND FORKS    CLOUDY    16  13  88 W12       29.48F WCI   3
GRAND FRKS AFB FAIR      10   5  79 W10       29.48S WCI  -3
GRAND FRKS NWS   N/A     15  14  96 W3        29.45F
DEVILS LAKE    MOCLDY    15  12  88 W12       29.48S WCI   2
FARGO          MOCLDY     8   6  92 W13       29.52R WCI  -8
WAHPETON ARPT  FAIR       3   0  85 W14       29.56R WCI -15
$$

 ***** WEATHER ACROSS CENTRAL AND WESTERN NORTH DAKOTA  *****

CITY           SKY/WX    TMP DP  RH WIND       PRES   REMARKS
BISMARCK       CLOUDY    23  19  85 W17       29.59S WCI   9
MINOT          FAIR      19  13  77 W17       29.52R WCI   4
JAMESTOWN      CLOUDY    17  13  84 W14       29.51R WCI   3
MINOT AFB      FAIR      17  11  80 W15         N/A  WCI   2
GARRISON         N/A     20  15  81 W20       29.54S WCI   4
WILLISTON      FAIR      15  10  80 W13       29.62R WCI   1
DICKINSON      CLOUDY    19  15  84 W21       29.59S WCI   3
HETTINGER      FAIR      13   9  84 W20       29.66R WCI  -5
$$

 *****  OTHER AIRPORT OBSERVATIONS IN OUR AREA  *****

CITY           SKY/WX    TMP DP  RH WIND       PRES   REMARKS
WALHALLA       FAIR      18  19 100 NW5       29.46S WCI  11
GRAFTON AIRPOR NOT AVBL
VALLEY CITY AR NOT AVBL
CANDO          CLOUDY    12  12 100 W10       29.49S WCI  -1
CAVALIER APRT    N/A     18  16  93 W8        29.46F WCI   7
GWINNER          N/A      9   5  85 W14       29.54S WCI  -8
ROLLA          PTSUNNY    3   1  92 SW7       29.44S WCI  -9
 ***** THE ABOVE OBSERVATIONS ARE NON NWS ARE NOT QUALITY
       CONTROLLED AND MAY MIS-REPORT RAIN FOR SNOW...
$$

  *****  WEATHER ACROSS NORTHERN MINNESOTA  *****

CITY           SKY/WX    TMP DP  RH WIND       PRES   REMARKS
FLAG ISLAND    LGT SNOW  19  18  93 NW12      29.38F WCI   7
WARROAD        FLURRIES  19  16  86 W7        29.42S WCI  10
ROSEAU         LGT SNOW  19  16  86 W9        29.43S WCI   9
HALLOCK        LGT SNOW  14  12  92 CALM      29.47S
THF RVR FALLS  FLURRIES  17  15  92 W8        29.46F WCI   7
BAUDETTE       LGT SNOW  20  18  92 NW9       29.36R FOG     WCI   9
WASKISH        LGT SNOW  19  19 100 W9        29.37S WCI   9
CROOKSTON      FLURRIES  16  14  93 W3        29.48F
STEPHEN NDAWN    N/A     16  12  86 W1          N/A
GREENBUSH NDAW   N/A     18  16  93 W7          N/A  WCI   8
$$
  *****  WEATHER ACROSS CENTRAL AND WEST MINNESOTA  *****

CITY           SKY/WX    TMP DP  RH WIND       PRES   REMARKS
FOSSTON        CLOUDY    16  14  93 W8        29.45S WCI   5
BEMIDJI        FLURRIES  18  16  90 W10       29.40S WCI   6
PARK RAPIDS    CLOUDY    18  15  88 W13       29.42S WCI   5
ELBOW LAKE     FAIR       6   4  90 NW10      29.54S WCI  -9
WADENA         CLOUDY    14  12  92 W9        29.47S WCI   2
DETROIT LAKES  FLURRIES  18  16  93 W6        29.48R WCI   9
MOORHEAD       FAIR       3   1  92 SW8       29.54R WCI -10
FERGUS FALLS   FLURRIES   3   0  85 W8        29.55R WCI -10
MORRIS MN      FAIR       7   3  85 W12       29.56R WCI  -9
STAPLES        CLOUDY    16  16 100 W14       29.47S WCI   1
$$
  *****  WEATHER ELSEWHERE ACROSS MINNESOTA  *****

CITY           SKY/WX    TMP DP  RH WIND       PRES   REMARKS
DULUTH         CLOUDY    24  20  84 W22G33    29.29R BLWGSNOWWCI   9
INTRNTL FALLS  FLURRIES  22  20  92 NW7       29.31S WCI  13
ELY            LGT SNOW  21  21 100 W5        29.24S WCI  15
CLOQUET        CLOUDY    23  19  86 W17G24    29.33R WCI   9
WHEATON        FAIR       9   3  78 W9        29.59R WCI  -5
BRAINERD       CLOUDY    21  15  78 W15G24    29.45R WCI   8
HIBBING        CLOUDY    20  18  92 W6        29.30S WCI  12
ALEXANDRIA     CLOUDY    16  14  92 W12       29.52R WCI   3
SAINT CLOUD    CLOUDY    20  17  88 W15G22    29.53R WCI   6
MINNEAPOLIS    CLOUDY    17  15  92 W12       29.59R WCI   4
$$

  *****  WEATHER ACROSS SOUTH DAKOTA  *****

CITY           SKY/WX    TMP DP  RH WIND       PRES   REMARKS
SIOUX FALLS    FAIR      13   7  77 W9        29.71R WCI   1
BROOKINGS      FAIR      11   6  81 W20       29.63R WCI  -7
WATERTOWN      FAIR       8   4  83 W16       29.59R WCI -10
HURON          FAIR      13   7  77 W9        29.69R WCI   1
SISSETON         N/A     13   6  74 W18       29.56R WCI  -4
ABERDEEN       FAIR      15   9  76 W14       29.64R WCI   0
MITCHELL       FAIR      17   8  67 W10       29.73S WCI   5
PIERRE         FAIR      18  10  71 W17       29.73R WCI   3
MOBRIDGE       CLOUDY    18  12  77 NW5       29.63R WCI  11
RAPID CITY     FAIR      13   2  61 CALM      29.72R
$$

  *****  SOME WEATHER IN NEARBY STATES *****

CITY           SKY/WX    TMP DP  RH WIND       PRES   REMARKS
GLASGOW MT     FAIR       6   2  83 SW3       29.63F
GREAT FALLS MT FAIR      23  10  57 SW24G31   29.61F WCI   7
CHEYENNE WY    FAIR      16   3  56 W8        29.75S WCI   5
SCOTTSBLUFF NE FAIR      25  12  58 W10       29.80S WCI  15
OMAHA NE       FAIR      22  15  75 S3        29.88R
DES MOINES IA  FAIR      24  18  77 W9        29.85R WCI  14
DAVENPORT IA   CLOUDY    34  26  72 W20G30    29.80R WCI  23
CHICAGO IL     CLOUDY    34  26  72 W24G43    29.71R WCI  21
EAU CLAIRE WI  CLOUDY    20  16  84 W20G29    29.53R FOG     WCI   4
LA CROSSE WI   CLOUDY    24  17  74 W14G28    29.66R WCI  12
$$

  *****  SOME NATIONAL WEATHER *****

CITY           SKY/WX    TMP DP  RH WIND       PRES   REMARKS
LA GUARDIA NY  RAIN      41  39  93 E10       30.11F FOG
RALEIGH NC     FAIR      63  60  90 SW14      30.04R
ATLANTA GA     MOCLDY    67  63  87 SW9       30.04R
NEW ORLEANS LA FAIR      71  70  96 S6        30.00R
OKLAHOMA CITY  FAIR      30  28  92 S5        29.99R
ALBUQUERQUE NM FAIR      28  12  51 NE3       29.96F
SALT LAKE CITY MOCLDY    28  15  58 W14       30.11R WCI  17
LOS ANGELES CA FAIR      47  33  58 NE9       30.17F
BOISE ID       FAIR      16  11  80 S5        30.15R WCI   9
SEATTLE WA     LGT RAIN  40  38  93 S20G29    29.92F
$$

*** WEATHER ACROSS MANITOBA...SASKATCHEWAN AND ONTARIO ***
                ***ONTARIO***

CITY           SKY/WX    TMP DP  RH WIND       PRES   REMARKS
GERALDTON      LGT SNOW  19  18  93 NE12G21   29.32F DRFTSNOWWCI   7
THUNDER BAY    LGT SNOW  28  28 100 E15G22    29.20F VSB 1   WCI  17
SIOUX LOOKOUT  LGT SNOW  21  18  86 NE3       29.33F VSB 1
TORONTO        LGT RAIN  36  34  93 E16G26    29.61F
BIG TROUT LK   CLOUDY    12   7  79 SE2       29.49F
PICKLE LAKE    FLURRIES  19  12  73 SE8       29.41  WCI   9
DRYDEN         LGT SNOW  21  19  93 NE8       29.31F VSB 3/4 WCI  12
KENORA         LGT SNOW  19  18  93 N7        29.36F FOG     WCI  10
$$
                *** MANITOBA***

CITY           SKY/WX    TMP DP  RH WIND       PRES   REMARKS
BRANDON        LGT SNOW   7   3  85 W12       29.46S WCI  -9
DAUPHIN        FLURRIES  18  14  86 W8        29.46S WCI   7
ISLAND LAKE    LGT SNOW  16  12  86 E2        29.45F
PILOT MOUND      N/A      7   3  85 W5          N/A  WCI  -2
THE PAS        FLURRIES  12   9  85 W2        29.46S
THOMPSON       FLURRIES   9   3  78 N8        29.49F WCI  -4
WINNIPEG       FLURRIES  16  14  93 SW6       29.45F WCI   7
LYNN LAKE      PTCLDY    -2  -4  92 NE2       29.51F
CHURCHILL      MOCLDY    -4  -9  77 NW6       29.62R WCI -16
GILLAM         LGT SNOW   5   1  85 NE9       29.54F WCI  -9
$$
                ***SASKATCHEWAN***

CITY           SKY/WX    TMP DP  RH WIND       PRES   REMARKS
ESTEVAN        CLOUDY    12   9  85 W16       29.55R WCI  -4
KINDERSLEY     CLEAR      3   0  85 S8        29.48F WCI -10
LLOYDMINSTER   CLEAR     10   9  92 S13       29.39F WCI  -5
PRINCE ALBERT  FLURRIES  10   5  79 CALM      29.55F
REGINA         FLURRIES  19  16  86 W10       29.54S WCI   8
YORKTON        FLURRIES  21  18  86 NW13      29.47S WCI   9
N. BATTLEFORD  FLURRIES   7   3  85 E6        29.50F WCI  -3
LA RONGE       FLURRIES   1  -2  85 W3        29.53F
SASKATOON      PTCLDY    12   9  85 S3        29.53F
SWIFT CURRENT  NOT AVBL
$$
NOTE: THESE ARE AUTOMATED STATIONS WITH LIMITED QUALITY CONTROL
      "FAIR" INDICATES FEW OR NO CLOUDS BELOW 12,000 FEET WITH NO
      SIGNIFICANT WEATHER AND/OR OBSTRUCTIONS TO VISIBILITY.
      SKY/WX - SKY CONDITION AND SIGNIFICANT WEATHER.
      TMP - AIR TEMPERATURE.    DP   - DEWPOINT TEMPERATURE.
      RH  - RELATIVE HUMIDITY.  PRES - PRESSURE.
      HX  - HEAT INDEX.         WCI  - WIND CHILL INDEX.
$




USA.gov is the U.S. government's official web portal to all federal, state and local government web resources and services.